Regional Weather Roundup
Issued by NWS

Home | Current Version | Previous Version | Graphics & Text | Print | Product List | Glossary On
Versions: 1 2 3 4 5 6 7 8 9 10 11 12 13 14 15 16 17 18 19 20 21 22 23 24 25 26 27 28 29 30 31 32 33 34 35 36 37 38 39 40 41 42 43 44 45 46 47 48 49 50
000
ASUS45 KSLC 220410
RWRUT

UTAH REGIONAL WEATHER ROUNDUP
NATIONAL WEATHER SERVICE SALT LAKE CITY UT
1000 PM MDT MON JUL 21 2014

UTZ001>011-023>025-220500-

NORTHERN UTAH

CITY           SKY/WX    TMP DP  RH WIND       PRES   REMARKS
HILL AFB       PTCLDY    80  42  26 N9G17     30.10R
LOGAN          NOT AVBL
OGDEN          PTCLDY    79  40  24 N15G23    30.06R
PROVO AIRPORT  CLEAR     77  43  29 S8        30.11R
SALT LAKE CITY MOCLDY    84  31  14 S10       30.03R
VERNAL         CLEAR     73  39  29 NW6       30.12R
WENDOVER       PTCLDY    79  46  31 E3        30.04R
HEBER CITY     CLEAR     72  34  25 CALM      30.18R
WEST JORDAN    CLEAR     79  43  27 S8        30.08R

$$

UTZ012>022-026-027-220500-

SOUTHERN UTAH

CITY           SKY/WX    TMP DP  RH WIND       PRES   REMARKS
BRYCE CANYON   CLEAR     58  23  26 CALM      30.40R
CEDAR CITY     CLEAR     73  28  18 S6        30.22R
MILFORD        CLEAR     73  30  20 S9        30.15R
MOAB/CYNLANDS  CLEAR     81  22  11 SW9       30.07R
PRICE          CLEAR     81  25  12 NW12      30.19R
ST GEORGE      CLEAR     91  28  10 W8        30.02R
KANAB            N/A     79  32  18 CALM      30.21

$$

REGIONAL REPORTS     COLORADO/ARIZONA

CITY           SKY/WX    TMP DP  RH WIND       PRES   REMARKS
CRAIG, CO      CLEAR     64  42  44 SE5       30.24R
GRAND JUNCTION CLEAR     77  18  11 CALM      30.11R
RIFLE          CLEAR     77  35  21 SE9       30.18R
MONTROSE       CLEAR     76  31  19 SE9       30.23R
CORTEZ         CLEAR     65  39  38 NE8       30.25R
PAGE, AZ       CLEAR     90  25   9 W5        30.11R
GRAND CANYON   CLEAR     59  32  36 CALM      30.35R
KINGMAN        CLEAR     80  30  16 S10       30.08R
FLAGSTAFF      CLEAR     69  36  29 CALM      30.38R

$$

REGIONAL REPORTS    NEVADA/IDAHO/WYOMING

CITY           SKY/WX    TMP DP  RH WIND       PRES   REMARKS
LAS VEGAS, NV  CLEAR     97  35  11 SW12      29.89R HX  92
ELY            CLEAR     67  23  19 S9        30.22R
ELKO           MOCLDY    74  46  36 S3        30.14R
POCATELLO, ID  MOCLDY    64  58  80 W10       30.16F
BURLEY         PTCLDY    68  58  70 SE3       30.13R
EVANSTON, WY   PTCLDY    69  29  22 SW5       30.30R
ROCK SPRINGS   CLEAR     74  28  18 W12       30.27R

$$


USA.gov is the U.S. government's official web portal to all federal, state and local government web resources and services.